Regional Weather Roundup
Issued by NWS

Home | Current Version | Previous Version | Text Only | Print | Product List | Glossary On
Versions: 1 2 3 4 5 6 7 8 9 10 11 12 13 14 15 16 17 18 19 20 21 22 23 24 25 26 27 28 29 30 31 32 33 34 35 36 37 38 39 40 41 42 43 44 45 46 47 48 49 50
331
ASUS43 KTOP 271959
RWRKS

WEATHER ROUNDUP FOR KANSAS
NATIONAL WEATHER SERVICE GOODLAND KS
300 PM CDT THU APR 27 2017

NOTE:  "FAIR" INDICATES FEW OR NO CLOUDS BELOW 12,000 FEET WITH NO
SIGNIFICANT WEATHER AND/OR OBSTRUCTIONS TO VISIBILITY.

KSZ001>006-013>018-027>032-041>047-272100-
NORTHWEST KANSAS

CITY           SKY/WX    TMP DP  RH WIND       PRES   REMARKS
GOODLAND       PTSUNNY   63  37  38 SE24G35   29.47F
HAYS           LGT RAIN  50  44  80 E18       29.61
HILL CITY      LGT RAIN  51  44  77 E16       29.59F
RUSSELL        RAIN      52  42  69 SE16      29.63F
$$

KSZ061>065-074>080-084>089-272100-
SOUTHWEST KANSAS

CITY           SKY/WX    TMP DP  RH WIND       PRES   REMARKS
DODGE CITY     CLOUDY    58  39  49 SE24G36   29.55F
ELKHART          N/A     66  43  43 SW9         N/A
GARDEN CITY    LGT RAIN  58  42  55 S20G31    29.51S
GREAT BEND     LGT RAIN  56  41  57 E16       29.62F
LIBERAL        CLOUDY    68  43  40 SE21G30   29.46F
$$

KSZ066>073-081>083-090>101-272100-
SOUTHEAST KANSAS

CITY           SKY/WX    TMP DP  RH WIND       PRES   REMARKS
CHANUTE        CLOUDY    61  44  53 S9        29.75R
COFFEYVILLE    MOSUNNY   62  45  53 SE9       29.72F
HUTCHINSON     CLOUDY    60  42  51 SE16      29.67F
MEDICINE LODGE   N/A     58  40  51 S13G21    29.63S
NEWTON         CLOUDY    59  43  55 S10       29.69F
PARSONS        CLOUDY    61  44  53 VRB5      29.74F
WICHITA INTL   CLOUDY    60  42  51 S17       29.68S
WICHITA JABRA  CLOUDY    60  42  51 SE14      29.68F
WICHITA MCCONL CLOUDY    60  40  47 S16       29.69S
WINFIELD       CLOUDY    60  42  51 SE14      29.69F
$$

KSZ007>012-019>026-033>040-048>060-102>105-272100-
NORTHEAST KANSAS

CITY           SKY/WX    TMP DP  RH WIND       PRES   REMARKS
CONCORDIA      CLOUDY    57  40  52 SE8       29.69F
EMPORIA        CLOUDY    60  41  49 S10       29.72S
LAWRENCE       CLOUDY    60  38  43 S7        29.74R
MANHATTAN      CLOUDY    60  35  39 CALM      29.71F
OLATHE IND     PTSUNNY   60  38  43 SW5       29.74R
OLATHE EXE     MOSUNNY   59  41  51 MISG      29.74R
SALINA         CLOUDY    60  40  47 SE12      29.70S
TOPEKA BILLARD PTSUNNY   60  36  40 NW5       29.72R
TOPEKA FORBES  CLOUDY    61  38  42 S8        29.72R
$$




USA.gov is the U.S. government's official web portal to all federal, state and local government web resources and services.